Regional Weather Roundup
Issued by NWS

Home | Current Version | Previous Version | Graphics & Text | Print | Product List | Glossary On
Versions: 1 2 3 4 5 6 7 8 9 10 11 12 13 14 15 16 17 18 19 20 21 22 23 24 25 26 27 28 29 30 31 32 33 34 35 36 37 38 39 40 41 42 43 44 45 46 47 48 49 50
000
ASUS43 KMKX 241710
RWRWI

WISCONSIN REGIONAL WEATHER ROUNDUP
NATIONAL WEATHER SERVICE MILWAUKEE/SULLIVAN WI
1100 AM CST SAT FEB 24 2018

NOTE: "FAIR" INDICATES FEW OR NO CLOUDS BELOW 12,000 FEET WITH NO
SIGNIFICANT WEATHER AND/OR OBSTRUCTIONS TO VISIBILITY.

WIZ001-002-006>008-014>016-023>028-241800-
NORTHWEST WISCONSIN

CITY           SKY/WX    TMP DP  RH WIND       PRES   REMARKS
SUPERIOR ARPT  FAIR      18  10  69 NW5       30.16F WCI  11
ASHLAND        FAIR      22  17  81 CALM      30.15F
HAYWARD        FAIR      18  14  84 E8        30.10F WCI   8
SIREN          FAIR      20  17  90 E5        30.10S WCI  13
CUMBERLAND     FAIR      19  18  93 SE3       30.08F FOG
RICE LAKE      FAIR      20  19  96 E3        30.11F
CHETEK         FAIR      21  20  95 E5        30.10F FOG     WCI  15
LADYSMITH      FAIR      24  22  96 E6        30.11F WCI  16
EAU CLAIRE     PTSUNNY   23  20  88 NE7       30.08F FOG     WCI  15
MENOMONIE      CLOUDY    21  20  96 E9        30.09F FOG     WCI  10
NEW RICHMOND   PTSUNNY   22  19  89 E7        30.07F FOG     WCI  13
OSCEOLA        FAIR      21  21 100 E3        30.11F
$$

WIZ003>005-009-010-017-018-241800-
NORTH CENTRAL WISCONSIN

CITY           SKY/WX    TMP DP  RH WIND       PRES   REMARKS
MANITOWISH WTR PTSUNNY   22  22 100 S7        30.11F WCI  14
ARBOR VITAE    PTSUNNY   26  24  93 SE8       30.11F WCI  17
WOODRUFF       PTSUNNY   26  24  93 SE8       30.11F WCI  17
RHINELANDER    FAIR      27  23  85 SE8       30.11F WCI  19
EAGLE RIVER    FAIR      26  26 100 S8        30.11F WCI  17
LAND O LAKES   CLOUDY    26  25  99 S8G16     30.13F WCI  17
PHILLIPS       FAIR      24  24 100 SE3       30.10F
TOMAHAWK       FAIR      25  23  93 SE3       30.12F
MEDFORD        FAIR     N/A N/A N/A E8        30.09F
MERRILL        FAIR      26  26  97 E7        30.13F WCI  19
$$

WIZ029-030-035-036-043>047-241800-
CENTRAL WISCONSIN

CITY           SKY/WX    TMP DP  RH WIND       PRES   REMARKS
WAUSAU         FAIR      28  22  78 SE9       30.11F WCI  19
MOSINEE        MOSUNNY   28  28 100 SE10      30.13F WCI  19
MARSHFIELD     CLOUDY    26  23  88 SE14      30.09F FOG     WCI  14
STEVENS POINT  FAIR      29  24  80 E12       30.13F WCI  19
WAUPACA        FAIR      36  26  68 E10       30.16F WCI  28
WAUTOMA        FAIR      33  24  69 E9          N/A  WCI  25
WISC RAPIDS    FAIR      31  21  66 E13       30.13F WCI  21
CAMP DOUGLAS   PTSUNNY   32  25  74 E16       30.08F WCI  21
$$

WIZ011>013-019>022-031-037>040-048>050-241800-
NORTHEAST WISCONSIN

CITY           SKY/WX    TMP DP  RH WIND       PRES   REMARKS
ANTIGO         FAIR      27  27 100 SE10      30.13F WCI  17
SHAWANO        FAIR      36  25  65 SE9       30.18S WCI  29
OCONTO         CLOUDY    33  24  71 E6        30.20S WCI  27
STURGEON BAY   CLOUDY    33  25  72 SE9       30.20F WCI  25
GREEN BAY      PTSUNNY   34  25  69 SE9G16    30.19F WCI  27
MANITOWOC      CLOUDY    35  27  72 E13       30.18F WCI  26
APPLETON       PTSUNNY   36  21  55 E10       30.14F WCI  28
CLINTONVILLE   PTSUNNY   35  25  64 SE10      30.18S WCI  28
OSHKOSH        PTSUNNY   34  27  75 E10       30.15F WCI  26
$$

WIZ032>034-041-042-053>061-241800-
SOUTHWEST WISCONSIN

CITY           SKY/WX    TMP DP  RH WIND       PRES   REMARKS
LA CROSSE      FAIR      34  25  69 E14G20    30.05F WCI  25
SPARTA         FAIR      31  26  79 E16       30.07F WCI  20
VIROQUA        FAIR      30  28  90 E15       30.02F WCI  19
BOSCOBEL       FAIR      35  26  69 E10G25    30.06F WCI  27
PRAIRIE DU CHI CLOUDY    33  26  75 E13       30.03F WCI  23
PLATTEVILLE    CLOUDY    32  31  94 E17G23    30.04F WCI  21
$$

WIZ056-057-062-063-064-067-068-241800-
SOUTH CENTRAL WISCONSIN

CITY           SKY/WX    TMP DP  RH WIND       PRES   REMARKS
REEDSBURG      PTSUNNY   31  25  78 E9G17     30.09F WCI  23
BARABOO/DELLS  PTSUNNY   32  26  77 E14       30.09F WCI  22
LONE ROCK      PTSUNNY   33  27  78 E17       30.09F HAZE    WCI  22
MINERAL POINT  CLOUDY    32  32 100 E9        30.05F WCI  24
MADISON        CLOUDY    32  26  78 E14       30.12F WCI  22
MIDDLETON      CLOUDY    33  28  82 E12       30.11F WCI  24
WATERTOWN      CLOUDY    34  28  80 E14       30.12F WCI  25
MONROE         CLOUDY    32  28  86 E9        30.07F WCI  24
JANESVILLE     CLOUDY    36  30  80 E13G18    30.10F WCI  27
$$

WIZ051-052-058>065-066-070>072-241800-
SOUTHEAST WISCONSIN

CITY           SKY/WX    TMP DP  RH WIND       PRES   REMARKS
MILWAUKEE      PTSUNNY   37  30  75 E16       30.14F WCI  28
WAUKESHA       CLOUDY    32  27  80 E10G17    30.14F WCI  24
MILWAUKEE/TIMM CLOUDY    34  25  69 E13       30.17F WCI  25
RACINE         CLOUDY    36  29  75 E10       30.15F WCI  28
BURLINGTON     PTSUNNY   35  28  76 E10G20    30.12F WCI  27
KENOSHA        CLOUDY    36  29  75 E14       30.12F WCI  27
FOND DU LAC    PTSUNNY   36  26  67 E10G18    30.15F WCI  28
SHEBOYGAN      PTSUNNY   35  27  72 SE9       30.17F WCI  28
WEST BEND      FAIR      36  30  80 E13       30.14F WCI  27
JUNEAU         FAIR      34  28  77 E12       30.13F WCI  26
$$

LSZ147-162-241800-
LAKE SUPERIOR

STATION/POSITION TIME  TEMP    WIND        PRES    WAVE
                       AIR SEA DIR/SP/G            HT/PER
                 (UTC) (F)     (DEG/KT/KT) (MB)    (FT/S)
DEVILS ISLAND    1700   21     120/  5/  5 1022.4F
SAXON HARBOR     1630   24     290/  2/  3 1021.0F
$$

LMZ867-665-643>646-241800-
LAKE MICHIGAN

STATION/POSITION TIME  TEMP    WIND        PRES    WAVE
                       AIR SEA DIR/SP/G            HT/PER
                 (UTC) (F)     (DEG/KT/KT) (MB)    (FT/S)
NORTHPORT PIER   1640   33                 1023.0F
KEWAUNEE LAKESHO 1642   36     110/  6/ 10 1021.7F
SHEBOYGAN LAKESH 1700   33     100/ 13/ 14 1022.1F
PORT WASHINGTON  1630   35     100/ 12/ 14 1023.0F
KENOSHA   LAKESH 1700   34      80/  7/ 10 1020.3
$$

TC  - TEMPERATURE IN CELSIUS
VSB - VISIBILITY IN STATUTE MILES
WCI - WIND CHILL INDEX
HX  - HEAT INDEX





USA.gov is the U.S. government's official web portal to all federal, state and local government web resources and services.